Mankato, MN

1:02 PM CDT on July 27, 2017 (GMT -0500)
Mankato Regional

Weather History for KMKT - April, 2013

Change the Weather History Date:

Tuesday, April 30, 2013

  Actual Average Record
Temperature  
Mean Temperature 63 °F -  
Max Temperature 69 °F 62 °F 73 °F (1999)
Min Temperature 57 °F 42 °F 33 °F (2005)
Degree Days  
Heating Degree Days 2    
Growing Degree Days 13 (Base 50)    
Moisture  
Dew Point 44 °F    
Average Humidity 52    
Maximum Humidity 82    
Minimum Humidity 21    
Precipitation  
Precipitation 0.00 in - - ()
Sea Level Pressure  
Sea Level Pressure 29.66 in    
Wind  
Wind Speed 15 mph (WNW)    
Max Wind Speed 28 mph    
Max Gust Speed 33 mph    
Visibility 10 miles    
Events      
Averages and records for this station are not official NWS values.
T = Trace of Precipitation, MM = Missing Value Source: NWS Daily Summary

Daily Weather History Graph

Daily Weather History Graph

Search for Another Location

Airport or City:

Trip Planner

Search our weather history database for the weather conditions in past years. The results will help you decide how hot, cold, wet, or windy it might be!

Date:

Astronomy

Apr. 30, 2013 Rise Set
Actual Time 6:07 AM CDT 8:18 PM CDT
Civil Twilight 5:36 AM CDT 8:50 PM CDT
Nautical Twilight 4:56 AM CDT 9:29 PM CDT
Astronomical Twilight 4:13 AM CDT 10:13 PM CDT
Moon 12:44 AM CDT (4/30) 10:35 AM CDT (4/30)
Length of Visible Light 15h 14m
Length of Day
14h 10m
Waning Gibbous, 70% of the Moon is Illuminated
Apr 30
Waning Gibbous
May 2
Last Quarter
May 9
New
May 17
First Quarter
May 24
Full

Hourly Weather History & Observations

Time (CDT) Temp. Dew Point Humidity Pressure Visibility Wind Dir Wind Speed Gust Speed Precip Events Conditions
12:15 AM 62.6 °F 53.6 °F 72% 29.52 in 10.0 mi SE 15.0 mph - N/A   Clear
12:35 AM 62.6 °F 53.6 °F 72% 29.50 in 10.0 mi SE 15.0 mph - N/A   Clear
12:55 AM 62.6 °F 53.6 °F 72% 29.49 in 10.0 mi SE 13.8 mph - N/A   Clear
1:15 AM 60.8 °F 53.6 °F 77% 29.49 in 10.0 mi SE 13.8 mph - N/A   Clear
1:35 AM 60.8 °F 53.6 °F 77% 29.49 in 10.0 mi SE 13.8 mph - N/A   Scattered Clouds
1:55 AM 60.8 °F 53.6 °F 77% 29.48 in 10.0 mi SE 15.0 mph - N/A   Overcast
2:15 AM 62.6 °F 53.6 °F 72% 29.48 in 10.0 mi SSE 15.0 mph - N/A   Scattered Clouds
2:35 AM 62.6 °F 55.4 °F 77% 29.47 in 10.0 mi SSE 13.8 mph 19.6 mph N/A   Clear
2:55 AM 64.4 °F 55.4 °F 73% 29.46 in 10.0 mi South 17.3 mph - N/A   Clear
3:15 AM 64.4 °F 55.4 °F 73% 29.45 in 10.0 mi SSE 13.8 mph 18.4 mph N/A   Clear
3:35 AM 62.6 °F 55.4 °F 77% 29.44 in 10.0 mi South 12.7 mph - N/A   Clear
3:55 AM 64.4 °F 55.4 °F 73% 29.44 in 10.0 mi South 10.4 mph - N/A   Clear
4:15 AM 62.6 °F 57.2 °F 82% 29.44 in 10.0 mi South 10.4 mph 16.1 mph N/A   Clear
4:35 AM 64.4 °F 57.2 °F 77% 29.44 in 10.0 mi South 10.4 mph - N/A   Clear
4:55 AM 64.4 °F 57.2 °F 77% 29.44 in 10.0 mi South 11.5 mph 18.4 mph N/A   Clear
5:15 AM 64.4 °F 57.2 °F 77% 29.44 in 10.0 mi South 11.5 mph - N/A   Clear
5:35 AM 64.4 °F 57.2 °F 77% 29.44 in 10.0 mi South 11.5 mph - N/A   Clear
5:55 AM 64.4 °F 57.2 °F 77% 29.44 in 10.0 mi South 11.5 mph - N/A   Clear
6:15 AM 64.4 °F 57.2 °F 77% 29.44 in 10.0 mi South 11.5 mph - N/A   Clear
6:35 AM 64.4 °F 57.2 °F 77% 29.45 in 10.0 mi South 15.0 mph - N/A   Clear
6:55 AM 66.2 °F 55.4 °F 68% 29.45 in 10.0 mi South 17.3 mph 23.0 mph N/A   Clear
7:15 AM 66.2 °F 55.4 °F 68% 29.46 in 10.0 mi SSW 17.3 mph 24.2 mph N/A   Clear
7:35 AM 66.2 °F 55.4 °F 68% 29.47 in 10.0 mi SW 16.1 mph 21.9 mph N/A   Clear
7:55 AM 66.2 °F 55.4 °F 68% 29.49 in 10.0 mi SW 15.0 mph 24.2 mph N/A   Clear
8:15 AM 68.0 °F 55.4 °F 64% 29.51 in 10.0 mi WSW 17.3 mph 25.3 mph N/A   Clear
8:35 AM 69.8 °F 55.4 °F 60% 29.51 in 10.0 mi West 27.6 mph 31.1 mph N/A   Clear
8:55 AM 68.0 °F 51.8 °F 56% 29.52 in 10.0 mi WNW 19.6 mph 26.5 mph N/A   Clear
9:15 AM 66.2 °F 48.2 °F 52% 29.55 in 10.0 mi WNW 24.2 mph 32.2 mph N/A   Clear
9:35 AM 64.4 °F 46.4 °F 52% 29.57 in 10.0 mi NW 18.4 mph 33.4 mph N/A   Clear
9:55 AM 62.6 °F 44.6 °F 52% 29.59 in 10.0 mi NW 17.3 mph 25.3 mph N/A   Clear
10:15 AM 60.8 °F 44.6 °F 55% 29.61 in 10.0 mi NW 21.9 mph 29.9 mph N/A   Clear
10:35 AM 60.8 °F 44.6 °F 55% 29.62 in 10.0 mi NW 20.7 mph 26.5 mph N/A   Clear
10:55 AM 60.8 °F 44.6 °F 55% 29.64 in 10.0 mi NW 17.3 mph 25.3 mph N/A   Clear
11:15 AM 60.8 °F 44.6 °F 55% 29.65 in 10.0 mi NW 21.9 mph 27.6 mph N/A   Clear
11:35 AM 60.8 °F 44.6 °F 55% 29.66 in 10.0 mi NW 20.7 mph 26.5 mph N/A   Clear
11:55 AM 62.6 °F 44.6 °F 52% 29.67 in 10.0 mi NW 21.9 mph 25.3 mph N/A   Clear
12:15 PM 64.4 °F 44.6 °F 49% 29.69 in 10.0 mi WNW 21.9 mph 26.5 mph N/A   Clear
12:35 PM 64.4 °F 42.8 °F 45% 29.68 in 10.0 mi NW 18.4 mph 25.3 mph N/A   Clear
12:55 PM 64.4 °F 42.8 °F 45% 29.68 in 10.0 mi NW 16.1 mph 25.3 mph N/A   Clear
1:15 PM 64.4 °F 42.8 °F 45% 29.70 in 10.0 mi NW 20.7 mph 24.2 mph N/A   Clear
1:35 PM 66.2 °F 42.8 °F 43% 29.69 in 10.0 mi North 17.3 mph 23.0 mph N/A   Partly Cloudy
1:55 PM 64.4 °F 42.8 °F 45% 29.71 in 10.0 mi WNW 20.7 mph 29.9 mph N/A   Partly Cloudy
2:15 PM 64.4 °F 42.8 °F 45% 29.72 in 10.0 mi NNW 13.8 mph 20.7 mph N/A   Partly Cloudy
2:35 PM 64.4 °F 42.8 °F 45% 29.75 in 10.0 mi NW 8.1 mph - N/A   Partly Cloudy
2:55 PM 64.4 °F 42.8 °F 45% 29.75 in 10.0 mi NW 11.5 mph 17.3 mph N/A   Clear
3:15 PM 64.4 °F 41.0 °F 42% 29.75 in 10.0 mi WNW 9.2 mph - N/A   Clear
3:35 PM 64.4 °F 39.2 °F 40% 29.76 in 10.0 mi NW 12.7 mph - N/A   Clear
3:55 PM 66.2 °F 39.2 °F 37% 29.78 in 10.0 mi WNW 6.9 mph - N/A   Clear
4:15 PM 66.2 °F 35.6 °F 32% 29.79 in 10.0 mi West 11.5 mph 16.1 mph N/A   Clear
4:35 PM 66.2 °F 37.4 °F 35% 29.81 in 10.0 mi West 9.2 mph - N/A   Clear
4:55 PM 66.2 °F 37.4 °F 35% 29.82 in 10.0 mi WNW 10.4 mph - N/A   Clear
5:15 PM 66.2 °F 35.6 °F 32% 29.83 in 10.0 mi West 10.4 mph - N/A   Clear
5:35 PM 66.2 °F 33.8 °F 30% 29.83 in 10.0 mi WNW 8.1 mph - N/A   Clear
5:55 PM 66.2 °F 32.0 °F 28% 29.83 in 10.0 mi NW 15.0 mph - N/A   Clear
6:15 PM 68.0 °F 26.6 °F 21% 29.83 in 10.0 mi NNW 12.7 mph - N/A   Partly Cloudy
6:35 PM 68.0 °F 28.4 °F 23% 29.82 in 10.0 mi NNW 17.3 mph - N/A   Clear
6:55 PM 66.2 °F 28.4 °F 24% 29.82 in 10.0 mi NNW 17.3 mph - N/A   Clear
7:15 PM 66.2 °F 28.4 °F 24% 29.82 in 10.0 mi NNW 16.1 mph - N/A   Partly Cloudy
7:35 PM 64.4 °F 26.6 °F 24% 29.83 in 10.0 mi NNW 13.8 mph - N/A   Mostly Cloudy
7:55 PM 62.6 °F 28.4 °F 27% 29.84 in 10.0 mi NNW 15.0 mph - N/A   Mostly Cloudy
8:15 PM 62.6 °F 28.4 °F 27% 29.86 in 10.0 mi NNW 10.4 mph - N/A   Mostly Cloudy
8:35 PM 60.8 °F 28.4 °F 29% 29.87 in 10.0 mi NNW 9.2 mph - N/A   Mostly Cloudy
9:15 PM 57.2 °F 30.2 °F 36% 29.90 in 10.0 mi NNW 9.2 mph - N/A   Scattered Clouds
9:35 PM 57.2 °F 30.2 °F 36% 29.91 in 10.0 mi NNW 11.5 mph - N/A   Mostly Cloudy
9:55 PM 59.0 °F 30.2 °F 34% 29.93 in 10.0 mi NNW 10.4 mph - N/A   Overcast
10:15 PM 59.0 °F 32.0 °F 36% 29.95 in 10.0 mi NNW 11.5 mph - N/A   Overcast
10:35 PM 57.2 °F 30.2 °F 36% 29.94 in 10.0 mi North 8.1 mph - N/A   Overcast
10:55 PM 57.2 °F 32.0 °F 38% 29.95 in 10.0 mi NNW 9.2 mph - N/A   Overcast
11:15 PM 57.2 °F 32.0 °F 38% 29.97 in 10.0 mi NW 9.2 mph - N/A   Overcast
11:35 PM 57.2 °F 32.0 °F 38% 29.97 in 10.0 mi NNW 9.2 mph - N/A   Overcast